Bowling Green, KY

1:43 PM CDT on May 22, 2017 (GMT -0500)
Bowling Green-Warren County Regional

Weather History for KBWG - March, 2011

Change the Weather History Date:

Thursday, March 17, 2011

  Actual Average Record
Temperature  
Mean Temperature 59 °F 49 °F  
Max Temperature 78 °F 60 °F 86 °F (1894)
Min Temperature 39 °F 37 °F 16 °F (1900)
Degree Days  
Heating Degree Days 6 16  
Month to date heating degree days 264 321  
Since 1 July heating degree days 3590 3519  
Cooling Degree Days 0 0  
Month to date cooling degree days 0 0  
Year to date cooling degree days 0 0  
Growing Degree Days 8 (Base 50)    
Moisture  
Dew Point 43 °F    
Average Humidity 61    
Maximum Humidity 86    
Minimum Humidity 36    
Precipitation  
Precipitation 0.00 in 0.15 in 2.00 in (1919)
Month to date precipitation 3.69 2.34  
Year to date precipitation 11.82 9.91  
Snow  
Snow 0.00 in 0.00 in 1.00 in (1958)
Month to date snowfall 0.0 0.6  
Since 1 July snowfall 21.2 8.4  
Snow Depth 0.00 in    
Sea Level Pressure  
Sea Level Pressure 30.16 in    
Wind  
Wind Speed 8 mph (SSW)    
Max Wind Speed 21 mph    
Max Gust Speed 24 mph    
Visibility 10 miles    
Events      
T = Trace of Precipitation, MM = Missing Value Source: NWS Daily Summary

Daily Weather History Graph

Daily Weather History Graph

Search for Another Location

Airport or City:

Trip Planner

Search our weather history database for the weather conditions in past years. The results will help you decide how hot, cold, wet, or windy it might be!

Date:

Astronomy

Mar. 17, 2011 Rise Set
Actual Time 6:54 AM CDT 6:54 PM CDT
Civil Twilight 6:28 AM CDT 7:20 PM CDT
Nautical Twilight 5:58 AM CDT 7:50 PM CDT
Astronomical Twilight 5:27 AM CDT 8:21 PM CDT
Moon 4:49 PM CDT (3/17) 5:13 AM CDT (3/17)
Length of Visible Light 12h 52m
Length of Day
12h 00m
Waxing Gibbous, 94% of the Moon is Illuminated
Mar 17
Waxing Gibbous
Mar 19
Full
Mar 26
Last Quarter
Apr 3
New
Apr 11
First Quarter

Hourly Weather History & Observations

Time (CDT) Temp. Dew Point Humidity Pressure Visibility Wind Dir Wind Speed Gust Speed Precip Events Conditions
12:53 AM 44.1 °F 36.0 °F 73% 30.22 in 10.0 mi Calm Calm - N/A   Clear
1:53 AM 41.0 °F 35.1 °F 79% 30.22 in 10.0 mi Calm Calm - N/A   Clear
2:53 AM 39.9 °F 35.1 °F 83% 30.22 in 10.0 mi Calm Calm - N/A   Clear
3:53 AM 43.0 °F 37.0 °F 80% 30.20 in 10.0 mi Calm Calm - N/A   Scattered Clouds
4:53 AM 39.9 °F 36.0 °F 86% 30.21 in 10.0 mi Calm Calm - N/A   Mostly Cloudy
5:53 AM 44.1 °F 39.0 °F 82% 30.23 in 10.0 mi Calm Calm - N/A   Scattered Clouds
6:53 AM 41.0 °F 37.9 °F 89% 30.24 in 10.0 mi Calm Calm - N/A   Mostly Cloudy
7:53 AM 46.0 °F 41.0 °F 83% 30.25 in 10.0 mi Calm Calm - N/A   Clear
8:53 AM 55.9 °F 43.0 °F 62% 30.25 in 10.0 mi South 10.4 mph - N/A   Partly Cloudy
9:53 AM 61.0 °F 43.0 °F 52% 30.24 in 10.0 mi SSW 12.7 mph - N/A   Clear
10:53 AM 66.0 °F 43.0 °F 43% 30.22 in 10.0 mi SW 11.5 mph 18.4 mph N/A   Clear
11:53 AM 69.1 °F 45.0 °F 42% 30.21 in 10.0 mi SSW 10.4 mph - N/A   Clear
12:53 PM 72.0 °F 45.0 °F 38% 30.18 in 10.0 mi SSW 16.1 mph - N/A   Clear
1:53 PM 73.9 °F 46.0 °F 37% 30.14 in 10.0 mi SSW 17.3 mph 24.2 mph N/A   Clear
3:53 PM 77.0 °F 48.0 °F 36% 30.08 in 10.0 mi South 15.0 mph 21.9 mph N/A   Clear
4:53 PM 77.0 °F 48.9 °F 37% 30.07 in 10.0 mi South 11.5 mph 21.9 mph N/A   Clear
5:53 PM 75.9 °F 46.9 °F 36% 30.05 in 10.0 mi South 16.1 mph - N/A   Clear
6:53 PM 73.0 °F 46.9 °F 39% 30.06 in 10.0 mi South 13.8 mph - N/A   Clear
7:53 PM 71.1 °F 46.0 °F 41% 30.06 in 10.0 mi South 12.7 mph - N/A   Clear
8:53 PM 69.1 °F 46.0 °F 44% 30.06 in 10.0 mi South 12.7 mph - N/A   Clear
9:53 PM 66.0 °F 46.9 °F 50% 30.06 in 10.0 mi South 10.4 mph - N/A   Clear
10:53 PM 66.0 °F 46.9 °F 50% 30.09 in 10.0 mi SW 5.8 mph - N/A   Clear
11:53 PM 64.0 °F 46.9 °F 54% 30.11 in 10.0 mi SW 3.5 mph - N/A   Clear